Valentine, NE

6:43 AM CST on December 07, 2019 (GMT -0600)
Miller Field

Weather History for KVTN - October, 2019

Change the Weather History Date:

Saturday, October 12, 2019

  Actual Average Record
Temperature  
Mean Temperature 36 °F 50 °F  
Max Temperature 51 °F 65 °F 91 °F (1995)
Min Temperature 21 °F 35 °F 10 °F (1909)
Degree Days  
Heating Degree Days 29 15  
Month to date heating degree days 228 156  
Since 1 July heating degree days 281 341  
Cooling Degree Days 0 0  
Month to date cooling degree days 0 1  
Year to date cooling degree days 930 818  
Moisture  
Dew Point 20 °F    
Average Humidity 57    
Maximum Humidity 81    
Minimum Humidity 26    
Precipitation  
Precipitation T in 0.04 in 1.92 in (1997)
Month to date precipitation 0.65 0.57  
Year to date precipitation 27.55 18.32  
Snow  
Snow T in 0.10 in 1.80 in (1969)
Month to date snowfall 1.9 0.4  
Since 1 July snowfall 1.9 1.1  
Since 1 September snowfall 1.9 1.1  
Snow Depth 0.00 in    
Sea Level Pressure  
Sea Level Pressure 30.00 in    
Wind  
Wind Speed 11 mph ()    
Max Wind Speed 32 mph    
Max Gust Speed 46 mph    
Visibility 10.0 miles    
Events Snow    
T = Trace of Precipitation, MM = Missing Value Source: Averaged Metar Reports

Daily Weather History Graph

Daily Weather History Graph

Search for Another Location

Airport or City:

Astronomy

Oct. 12, 2019 Rise Set
Actual Time 7:51 AM CDT 7:04 PM CDT
Civil Twilight 7:23 AM CDT 7:33 PM CDT
Nautical Twilight 6:50 AM CDT 8:05 PM CDT
Astronomical Twilight 6:17 AM CDT 8:38 PM CDT
Moon 7:04 PM CDT (10/12) 6:27 AM CDT (10/12)
Length of Visible Light 12h 09m
Length of Day
11h 13m
Waxing Gibbous, 99% of the Moon is Illuminated
Oct 12
Waxing Gibbous
Oct 13
Full
Oct 21
Last Quarter
Oct 27
New
Nov 4
First Quarter

Hourly Weather History & Observations

Time (CDT) Temp. Windchill Dew Point Humidity Pressure Visibility Wind Dir Wind Speed Gust Speed Precip Events Conditions
12:52 AM 21.0 °F 12.4 °F 16.0 °F 81% 30.10 in 10.0 mi West 6.9 mph - N/A   Clear
1:52 AM 23.0 °F 13.9 °F 17.1 °F 78% 30.09 in 10.0 mi West 8.1 mph - N/A   Clear
2:52 AM 26.1 °F 16.8 °F 19.0 °F 75% 30.08 in 10.0 mi West 9.2 mph - N/A   Clear
3:52 AM 28.0 °F 18.1 °F 19.9 °F 72% 30.06 in 10.0 mi West 11.5 mph - N/A   Clear
4:52 AM 28.9 °F 19.2 °F 19.9 °F 69% 30.04 in 10.0 mi West 11.5 mph - N/A   Clear
5:52 AM 24.1 °F 15.2 °F 17.1 °F 75% 30.06 in 10.0 mi West 8.1 mph - N/A   Clear
6:52 AM 30.0 °F 21.7 °F 19.9 °F 66% 30.03 in 10.0 mi West 9.2 mph - N/A   Clear
7:52 AM 28.0 °F 18.1 °F 19.9 °F 72% 30.03 in 10.0 mi West 11.5 mph - N/A   Clear
8:52 AM 30.9 °F 21.7 °F 19.9 °F 64% 30.04 in 10.0 mi West 11.5 mph - N/A   Clear
9:52 AM 37.9 °F 28.2 °F 21.9 °F 53% 30.01 in 10.0 mi WNW 18.4 mph 27.6 mph N/A   Clear
10:52 AM 43.0 °F 32.9 °F 21.0 °F 42% 30.01 in 10.0 mi WNW 27.6 mph 42.6 mph N/A   Clear
11:52 AM 44.1 °F 34.8 °F 21.9 °F 42% 29.99 in 10.0 mi WNW 25.3 mph 39.1 mph 0.00 in   Clear
12:52 PM 46.0 °F 37.4 °F 21.0 °F 37% 29.98 in 10.0 mi WNW 25.3 mph 41.4 mph N/A   Clear
1:52 PM 48.0 °F - 23.0 °F 37% 29.96 in 10.0 mi WNW 25.3 mph 36.8 mph N/A   Clear
2:52 PM 50.0 °F - 21.9 °F 33% 29.94 in 10.0 mi NW 20.7 mph 36.8 mph N/A   Clear
3:52 PM 51.1 °F - 18.0 °F 27% 29.92 in 10.0 mi NW 21.9 mph 34.5 mph N/A   Clear
4:52 PM 50.0 °F - 17.1 °F 27% 29.92 in 10.0 mi NW 18.4 mph 33.4 mph N/A   Clear
5:52 PM 50.0 °F - 17.1 °F 27% 29.93 in 10.0 mi WNW 17.3 mph 29.9 mph N/A   Clear
6:52 PM 45.0 °F 39.3 °F 19.9 °F 37% 29.93 in 10.0 mi West 11.5 mph - N/A   Clear
7:52 PM 37.9 °F 33.5 °F 21.0 °F 51% 29.96 in 10.0 mi WNW 5.8 mph - N/A   Clear
8:52 PM 28.9 °F 22.8 °F 21.0 °F 72% 29.97 in 10.0 mi West 5.8 mph - 0.00 in   Clear
9:52 PM 28.0 °F 21.7 °F 21.0 °F 75% 29.96 in 10.0 mi WNW 5.8 mph - N/A   Clear
10:52 PM 27.0 °F 20.5 °F 19.9 °F 75% 29.97 in 10.0 mi West 5.8 mph - 0.00 in Snow Light Snow
11:52 PM 28.0 °F 19.3 °F 21.0 °F 75% 29.96 in 10.0 mi West 9.2 mph - 0.00 in   Clear